When you browse on this site, cookies collect data to enhance your experience and personalize the content and advertising you see.
Visit our Privacy Policy to learn more. By continuing to use the site, you agree to this use of cookies and data.
  • In Spain
  • List of Countries
  • For 7 days
  • Water Temperature
  • Weather Map
  • Weather Widgets
  • user-avatar
    Login

    Hourly Weather Spasskoe-Shlykovo

    Today, 17 February, Monday

    Time Temperature Precipitation Wind Pressure Humidity
    00:00 -2°C° 0 mm 8 mps 747 mmHg 89%
    01:00 -3°C° 0 mm 9 mps 746 mmHg 89%
    02:00 -3°C° 0 mm 9 mps 746 mmHg 88%
    03:00 -3°C° 0 mm 9 mps 745 mmHg 87%
    04:00 -4°C° 0 mm 9 mps 744 mmHg 85%
    05:00 -4°C° 0 mm 9 mps 744 mmHg 83%
    06:00 -4°C° 0 mm 9 mps 744 mmHg 83%
    07:00 -4°C° 0 mm 9 mps 743 mmHg 82%
    08:00 -3°C° 0 mm 10 mps 743 mmHg 82%
    09:00 -3°C° 0 mm 10 mps 743 mmHg 81%
    10:00 -3°C° 0 mm 10 mps 742 mmHg 81%
    11:00 -3°C° 0 mm 10 mps 741 mmHg 81%
    12:00 -3°C° 0 mm 10 mps 742 mmHg 81%
    13:00 -3°C° 0 mm 10 mps 742 mmHg 81%
    14:00 -2°C° 0 mm 10 mps 742 mmHg 81%
    15:00 -1°C° 0 mm 9 mps 741 mmHg 81%
    16:00 -1°C° 0 mm 9 mps 741 mmHg 80%
    17:00 -1°C° 0 mm 9 mps 741 mmHg 80%
    18:00 -1°C° 0 mm 9 mps 741 mmHg 80%
    19:00 -1°C° 0 mm 8 mps 742 mmHg 81%
    20:00 -1°C° 0 mm 8 mps 742 mmHg 82%
    21:00 -1°C° 0 mm 8 mps 742 mmHg 85%
    22:00 -1°C° 0 mm 7 mps 742 mmHg 88%
    23:00 -1°C° 0 mm 7 mps 742 mmHg 90%

    Tomorrow, 18 February, Tuesday

    Time Temperature Precipitation Wind Pressure Humidity
    00:00 -1°C° 0.3 mm 6 mps 742 mmHg 93%
    01:00 -1°C° 0.3 mm 6 mps 742 mmHg 95%
    02:00 -1°C° 0.3 mm 6 mps 743 mmHg 97%
    03:00 -1°C° 0.4 mm 5 mps 742 mmHg 97%
    04:00 -1°C° 0.4 mm 5 mps 742 mmHg 97%
    05:00 -1°C° 0.4 mm 5 mps 742 mmHg 98%
    06:00 -1°C° 0.2 mm 5 mps 742 mmHg 98%
    07:00 -1°C° 0.2 mm 4 mps 742 mmHg 98%
    08:00 -1°C° 0.2 mm 4 mps 742 mmHg 98%
    09:00 -1°C° 0.5 mm 4 mps 742 mmHg 99%
    10:00 -1°C° 0.5 mm 4 mps 741 mmHg 99%
    11:00 -1°C° 0.5 mm 4 mps 741 mmHg 99%
    12:00 0°C° 0.9 mm 3 mps 740 mmHg 99%
    13:00 0°C° 0.9 mm 3 mps 740 mmHg 99%
    14:00 -1°C° 0.9 mm 3 mps 740 mmHg 99%
    15:00 -1°C° 0.5 mm 4 mps 739 mmHg 98%
    16:00 -1°C° 0.5 mm 4 mps 739 mmHg 98%
    17:00 -1°C° 0.5 mm 4 mps 738 mmHg 98%
    18:00 -1°C° 0.9 mm 4 mps 738 mmHg 98%
    19:00 -1°C° 0.9 mm 4 mps 738 mmHg 98%
    20:00 -1°C° 0.9 mm 4 mps 738 mmHg 98%
    21:00 -1°C° 0.2 mm 4 mps 738 mmHg 98%
    22:00 -1°C° 0.2 mm 4 mps 738 mmHg 98%
    23:00 0°C° 0.2 mm 3 mps 738 mmHg 98%

    Day after tomorrow, 19 February, Wednesday

    Time Temperature Precipitation Wind Pressure Humidity
    00:00 -1°C° 0 mm 4 mps 738 mmHg 96%
    01:00 -1°C° 0 mm 4 mps 739 mmHg 95%
    02:00 -1°C° 0 mm 4 mps 739 mmHg 93%
    03:00 -1°C° 0 mm 4 mps 739 mmHg 93%
    04:00 -1°C° 0 mm 4 mps 739 mmHg 92%
    05:00 -1°C° 0 mm 5 mps 739 mmHg 92%
    06:00 -1°C° 0 mm 5 mps 739 mmHg 92%
    07:00 -1°C° 0 mm 5 mps 739 mmHg 92%
    08:00 -2°C° 0 mm 5 mps 740 mmHg 93%
    09:00 -2°C° 0 mm 5 mps 740 mmHg 94%
    10:00 -1°C° 0 mm 5 mps 740 mmHg 96%
    11:00 -1°C° 0 mm 5 mps 740 mmHg 98%
    12:00 -1°C° 0 mm 5 mps 740 mmHg 94%
    13:00 -1°C° 0 mm 5 mps 741 mmHg 91%
    14:00 -1°C° 0 mm 5 mps 741 mmHg 88%
    15:00 -1°C° 0 mm 4 mps 741 mmHg 87%
    16:00 -1°C° 0 mm 4 mps 741 mmHg 86%
    17:00 -2°C° 0 mm 4 mps 741 mmHg 86%
    18:00 -2°C° 0 mm 4 mps 741 mmHg 86%
    19:00 -2°C° 0 mm 4 mps 742 mmHg 87%
    20:00 -3°C° 0 mm 4 mps 742 mmHg 88%
    21:00 -3°C° 0 mm 4 mps 742 mmHg 89%
    22:00 -2°C° 0 mm 3 mps 742 mmHg 89%
    23:00 -4°C° 0 mm 3 mps 742 mmHg 90%

    20 February, Thursday

    Time Temperature Precipitation Wind Pressure Humidity
    00:00 -4°C° 0 mm 3 mps 742 mmHg 90%
    01:00 -4°C° 0 mm 3 mps 742 mmHg 90%
    02:00 -4°C° 0 mm 3 mps 743 mmHg 90%
    03:00 -4°C° 0 mm 3 mps 743 mmHg 90%
    04:00 -4°C° 0 mm 3 mps 742 mmHg 90%
    05:00 -4°C° 0 mm 3 mps 742 mmHg 90%
    06:00 -4°C° 0 mm 3 mps 743 mmHg 90%
    07:00 -2°C° 0 mm 3 mps 743 mmHg 89%
    08:00 -2°C° 0 mm 3 mps 743 mmHg 88%
    09:00 -3°C° 0 mm 4 mps 743 mmHg 88%
    10:00 -2°C° 0 mm 4 mps 743 mmHg 87%
    11:00 -1°C° 0 mm 4 mps 744 mmHg 86%
    12:00 -1°C° 0 mm 4 mps 744 mmHg 87%
    13:00 0°C° 0 mm 3 mps 744 mmHg 88%
    14:00 0°C° 0 mm 3 mps 744 mmHg 89%
    15:00 0°C° 0 mm 3 mps 744 mmHg 90%
    16:00 -1°C° 0 mm 3 mps 744 mmHg 92%
    17:00 -2°C° 0 mm 3 mps 744 mmHg 93%
    18:00 -2°C° 0 mm 2 mps 744 mmHg 93%
    19:00 -2°C° 0 mm 2 mps 744 mmHg 93%
    20:00 -2°C° 0 mm 2 mps 745 mmHg 94%
    21:00 -2°C° 0 mm 2 mps 745 mmHg 95%
    22:00 -2°C° 0 mm 2 mps 745 mmHg 96%
    23:00 -2°C° 0 mm 2 mps 745 mmHg 97%

    21 February, Friday

    Time Temperature Precipitation Wind Pressure Humidity
    00:00 -2°C° 0.1 mm 2 mps 745 mmHg 97%
    01:00 -2°C° 0.1 mm 2 mps 745 mmHg 97%
    02:00 -2°C° 0.1 mm 2 mps 745 mmHg 98%
    03:00 0°C° 0.1 mm 1 mps 745 mmHg 98%
    04:00 0°C° 0.1 mm 1 mps 745 mmHg 98%
    05:00 0°C° 0.1 mm 1 mps 745 mmHg 98%
    06:00 0°C° 0.1 mm 1 mps 746 mmHg 98%
    07:00 0°C° 0.1 mm 1 mps 746 mmHg 98%
    08:00 +1°C° 0.1 mm 1 mps 746 mmHg 97%
    15:00 +1°C° 0 mm 1 mps 746 mmHg 97%
    16:00 +1°C° 0 mm 1 mps 746 mmHg 97%
    17:00 +1°C° 0 mm 1 mps 746 mmHg 97%
    18:00 -2°C° 0 mm 2 mps 746 mmHg 96%
    19:00 -2°C° 0 mm 2 mps 746 mmHg 95%
    20:00 -2°C° 0 mm 2 mps 746 mmHg 95%
    21:00 -2°C° 0 mm 2 mps 746 mmHg 94%
    22:00 -2°C° 0 mm 2 mps 746 mmHg 94%
    23:00 -2°C° 0 mm 2 mps 746 mmHg 94%

    22 February, Saturday

    Time Temperature Precipitation Wind Pressure Humidity
    00:00 -2°C° 0 mm 2 mps 746 mmHg 93%
    01:00 -2°C° 0 mm 2 mps 745 mmHg 92%
    02:00 -2°C° 0 mm 2 mps 745 mmHg 91%
    03:00 -2°C° 0 mm 3 mps 745 mmHg 91%
    04:00 -2°C° 0 mm 3 mps 745 mmHg 91%
    05:00 -2°C° 0 mm 3 mps 744 mmHg 91%
    06:00 -2°C° 0 mm 3 mps 744 mmHg 91%
    07:00 -3°C° 0 mm 4 mps 744 mmHg 91%
    08:00 -3°C° 0 mm 4 mps 744 mmHg 91%
    09:00 -3°C° 0 mm 4 mps 743 mmHg 91%
    10:00 -2°C° 0 mm 5 mps 743 mmHg 91%
    11:00 -3°C° 0 mm 6 mps 743 mmHg 90%
    12:00 -3°C° 0 mm 6 mps 742 mmHg 91%
    13:00 -3°C° 0 mm 6 mps 741 mmHg 92%
    14:00 -3°C° 0 mm 6 mps 741 mmHg 92%
    15:00 -3°C° 0.1 mm 6 mps 740 mmHg 94%
    16:00 -3°C° 0.1 mm 6 mps 739 mmHg 95%
    17:00 -3°C° 0.1 mm 6 mps 739 mmHg 96%
    18:00 -3°C° 0.1 mm 6 mps 738 mmHg 96%
    19:00 -3°C° 0.1 mm 6 mps 738 mmHg 97%
    20:00 -3°C° 0.1 mm 6 mps 737 mmHg 97%
    21:00 -3°C° 0.1 mm 6 mps 736 mmHg 94%
    22:00 -3°C° 0.1 mm 6 mps 735 mmHg 92%
    23:00 -3°C° 0.1 mm 6 mps 734 mmHg 89%
    Show more